Location: Chuathbaluk
(61.5726°N, 159.2454°W)
Time: 14:00:36
(UTC+00:00)

SR - Pass Details

Date: 04 December 2020
Orbit: 575 x 880 km, 66.7° (Epoch: 17 January)

Event Time Altitude Azimuth Distance (km) Brightness Sun altitude
Rises 07:17:25 0° 267° (W) 2,951 ? -39.2°
Reaches altitude 10° 07:19:41 10° 273° (W) 2,084 ? -39.4°
Enters shadow 07:20:02 12° 274° (W) 1,955 ? -39.4°
